Volver al catálogo

STARLINK-3929

ActivoComunicacionesVLEO
NORAD 52567·PAYLOAD·🇺🇸 United States

Lanzado May 13, 2022 desde Vandenberg Space Force Base

Loading…

Próximos Pases (próximas 24 horas)

TLE

ActualizadoSource: CelesTrak SupGP

Época: Sep 15, 2026, 02:52 UTC

1 52567C 22051AL  26258.11993056  .00032361  00000+0  95616-3 0  2584
2 52567  53.1578 332.9037 0001199  92.1704 346.0853 15.34372636    16

Sigue STARLINK-3929 en tiempo real con AllMySat

Download on the App Store